NGN4820 EDDG-LGRP

Flight info

Callsign NGN4820
Flight time 3h 10m
Altitude 35000
Route DOMEG1W DOMEG Z841 GMH Q603 TESGA DCT ESATI DCT DETEV DCT DINKU DCT BESNI DCT LATLO/N0445F370 DCT OBEDI DCT CEPRA DCT PODET DCT IRDIV DCT REMSO DCT MEDUX UM867 KOGAT DCT ERANA UL737 TSL UN130 MES UN139 LURUS UL995 CODIC
Aircraft A320/M-SDE3FGHIJ1LORVWXY/SB1

Departure

Time 2026-04-24 05:15
Airport Münster Osnabrück Airport (EDDG)

Arrival

Time 2026-04-24 08:25
Airport Rhodes International Airport "Diagoras" (LGRP)
Time Latitude Longitude Altitude Speed Heading
2026-04-24 04:51 52.13132 7.69210 168 ft 0 kts 197°
2026-04-24 04:55 52.13132 7.69209 167 ft 0 kts 197°
2026-04-24 04:55 52.13132 7.69210 167 ft 0 kts 197°
2026-04-24 05:08 52.13131 7.69209 167 ft 2 kts 198°
2026-04-24 05:09 52.13132 7.69188 167 ft 3 kts 297°
2026-04-24 05:09 52.13173 7.69170 167 ft 8 kts 358°
2026-04-24 05:09 52.13208 7.69234 167 ft 7 kts 71°
2026-04-24 05:09 52.13237 7.69317 167 ft 10 kts 26°
2026-04-24 05:10 52.13305 7.69294 167 ft 11 kts 341°
2026-04-24 05:10 52.13365 7.69260 167 ft 7 kts 341°
2026-04-24 05:10 52.13424 7.69235 167 ft 11 kts
2026-04-24 05:10 52.13471 7.69343 167 ft 14 kts 71°
2026-04-24 05:11 52.13501 7.69482 167 ft 14 kts 71°
2026-04-24 05:11 52.13519 7.69570 167 ft 16 kts 71°
2026-04-24 05:11 52.13559 7.69757 167 ft 19 kts 71°
2026-04-24 05:11 52.13595 7.69930 167 ft 16 kts 71°
2026-04-24 05:12 52.13652 7.70031 167 ft 10 kts 22°
2026-04-24 05:12 52.13691 7.70038 167 ft 0 kts 347°
2026-04-24 05:13 52.13697 7.70036 167 ft 3 kts 346°
2026-04-24 05:13 52.13742 7.70013 167 ft 10 kts 340°
2026-04-24 05:13 52.13773 7.69943 167 ft 8 kts 256°
2026-04-24 05:14 52.13770 7.69925 167 ft 0 kts 250°
2026-04-24 05:14 52.13768 7.69917 167 ft 7 kts 250°
2026-04-24 05:14 52.13673 7.69468 169 ft 81 kts 251°
2026-04-24 05:14 52.13416 7.68245 170 ft 144 kts 251°
2026-04-24 05:15 52.13067 7.66574 601 ft 159 kts 251°
2026-04-24 05:15 52.12673 7.64848 1267 ft 166 kts 251°
2026-04-24 05:15 52.12275 7.63039 1670 ft 179 kts 253°
2026-04-24 05:15 52.11853 7.60990 1852 ft 202 kts 253°
2026-04-24 05:16 52.11378 7.58710 2102 ft 225 kts 254°
2026-04-24 05:16 52.10794 7.56212 2457 ft 248 kts 244°
2026-04-24 05:16 52.09708 7.53960 3178 ft 260 kts 224°
2026-04-24 05:16 52.08127 7.52441 3980 ft 271 kts 202°
2026-04-24 05:17 52.06238 7.51864 4726 ft 281 kts 188°
2026-04-24 05:17 52.04270 7.51569 5459 ft 286 kts 188°
2026-04-24 05:17 52.02261 7.51249 6173 ft 293 kts 188°
2026-04-24 05:17 52.00192 7.51067 6881 ft 302 kts 178°
2026-04-24 05:18 51.98088 7.51509 7620 ft 307 kts 172°
2026-04-24 05:18 51.95973 7.52092 8387 ft 310 kts 172°
2026-04-24 05:18 51.93837 7.52666 9130 ft 313 kts 171°
2026-04-24 05:18 51.91671 7.53250 9841 ft 317 kts 171°
2026-04-24 05:19 51.89487 7.53829 10551 ft 321 kts 172°
2026-04-24 05:19 51.87208 7.54436 10753 ft 343 kts 171°
2026-04-24 05:19 51.85615 7.54856 10857 ft 357 kts 172°
2026-04-24 05:19 51.82278 7.55735 11533 ft 368 kts 171°
2026-04-24 05:20 51.79772 7.56396 12183 ft 371 kts 171°
2026-04-24 05:20 51.77214 7.57068 12880 ft 373 kts 171°
2026-04-24 05:20 51.74645 7.57741 13557 ft 375 kts 172°
2026-04-24 05:20 51.72063 7.58417 14210 ft 377 kts 171°
2026-04-24 05:21 51.70323 7.59069 14633 ft 380 kts 163°
2026-04-24 05:21 51.67851 7.60444 15243 ft 382 kts 161°
2026-04-24 05:21 51.65344 7.61903 15842 ft 385 kts 161°
2026-04-24 05:21 51.62816 7.63361 16441 ft 387 kts 161°
2026-04-24 05:22 51.60270 7.64820 17025 ft 389 kts 161°
2026-04-24 05:22 51.57711 7.66271 17594 ft 392 kts 161°
2026-04-24 05:22 51.55132 7.67730 18157 ft 394 kts 161°
2026-04-24 05:22 51.52542 7.69201 18709 ft 396 kts 161°
2026-04-24 05:23 51.49931 7.70688 19274 ft 399 kts 161°
2026-04-24 05:23 51.47305 7.72180 19826 ft 402 kts 161°
2026-04-24 05:23 51.44653 7.73682 20387 ft 405 kts 161°
2026-04-24 05:23 51.41981 7.75187 20978 ft 408 kts 161°
2026-04-24 05:24 51.39298 7.76708 21545 ft 410 kts 161°
2026-04-24 05:24 51.36597 7.78226 22083 ft 413 kts 161°
2026-04-24 05:24 51.33874 7.79756 22593 ft 416 kts 161°
2026-04-24 05:24 51.31139 7.81295 23085 ft 419 kts 161°
2026-04-24 05:25 51.28380 7.82843 23565 ft 421 kts 161°
2026-04-24 05:25 51.25607 7.84405 24042 ft 423 kts 160°
2026-04-24 05:25 51.22822 7.85971 24513 ft 426 kts 160°
2026-04-24 05:25 51.20016 7.87547 24965 ft 428 kts 160°
2026-04-24 05:26 51.17236 7.89276 25414 ft 430 kts 154°
2026-04-24 05:26 51.14631 7.91638 25845 ft 432 kts 147°
2026-04-24 05:26 51.12134 7.94208 26266 ft 434 kts 147°
2026-04-24 05:26 51.09589 7.96816 26676 ft 436 kts 147°
2026-04-24 05:27 51.07021 7.99424 27078 ft 439 kts 147°
2026-04-24 05:27 51.04442 8.02045 27485 ft 440 kts 147°
2026-04-24 05:27 51.01854 8.04671 27835 ft 444 kts 147°
2026-04-24 05:27 50.99241 8.07318 28155 ft 447 kts 147°
2026-04-24 05:28 50.96611 8.09974 28496 ft 449 kts 147°
2026-04-24 05:28 50.93971 8.12635 28931 ft 449 kts 147°
2026-04-24 05:28 50.91341 8.15287 29434 ft 447 kts 147°
2026-04-24 05:28 50.88717 8.17927 29921 ft 445 kts 147°
2026-04-24 05:29 50.86108 8.20546 30402 ft 443 kts 147°
2026-04-24 05:29 50.83506 8.23148 30862 ft 442 kts 147°
2026-04-24 05:29 50.80905 8.25752 31300 ft 441 kts 147°
2026-04-24 05:29 50.78321 8.28345 31735 ft 440 kts 147°
2026-04-24 05:30 50.75737 8.30931 32155 ft 439 kts 147°
2026-04-24 05:30 50.73154 8.33503 32576 ft 438 kts 147°
2026-04-24 05:30 50.70607 8.36028 32982 ft 437 kts 147°
2026-04-24 05:30 50.68031 8.38587 33219 ft 438 kts 147°
2026-04-24 05:31 50.65456 8.41157 33247 ft 437 kts 147°
2026-04-24 05:31 50.60319 8.46274 33249 ft 436 kts 147°
2026-04-24 05:32 50.55179 8.51344 33254 ft 436 kts 147°
2026-04-24 05:32 50.50050 8.56408 33262 ft 435 kts 147°
2026-04-24 05:33 50.44947 8.61534 33252 ft 435 kts 141°
2026-04-24 05:33 50.40486 8.67920 33251 ft 434 kts 134°
2026-04-24 05:34 50.33980 8.77716 33264 ft 434 kts 135°
2026-04-24 05:34 50.29621 8.84270 33267 ft 435 kts 134°
2026-04-24 05:35 50.25259 8.90814 33261 ft 435 kts 135°
2026-04-24 05:35 50.20878 8.97350 33268 ft 435 kts 135°
2026-04-24 05:36 50.16499 9.03891 33267 ft 436 kts 134°
2026-04-24 05:36 50.12105 9.10410 33265 ft 436 kts 135°
2026-04-24 05:37 50.07699 9.16927 33265 ft 436 kts 134°
2026-04-24 05:37 50.03297 9.23445 33267 ft 437 kts 134°
2026-04-24 05:38 49.98882 9.29943 33266 ft 437 kts 134°
2026-04-24 05:38 49.94507 9.36379 33267 ft 435 kts 134°
2026-04-24 05:39 49.90112 9.42841 33267 ft 435 kts 134°
2026-04-24 05:39 49.87904 9.46084 33384 ft 437 kts 134°
2026-04-24 05:39 49.85703 9.49315 33808 ft 436 kts 134°
2026-04-24 05:40 49.83500 9.52528 34195 ft 435 kts 134°
2026-04-24 05:40 49.81294 9.55730 34578 ft 434 kts 134°
2026-04-24 05:40 49.79091 9.58930 34927 ft 434 kts 134°
2026-04-24 05:40 49.76893 9.62127 35198 ft 435 kts 134°
2026-04-24 05:41 49.72419 9.68636 35248 ft 446 kts 134°
2026-04-24 05:41 49.67873 9.75191 35249 ft 448 kts 134°
2026-04-24 05:42 49.63345 9.81719 35246 ft 448 kts 134°
2026-04-24 05:42 49.58792 9.88289 35248 ft 448 kts 134°
2026-04-24 05:43 49.54219 9.94829 35249 ft 448 kts 134°
2026-04-24 05:43 49.49651 10.01377 35262 ft 449 kts 134°
2026-04-24 05:44 49.45068 10.07917 35252 ft 449 kts 134°
2026-04-24 05:44 49.40472 10.14452 35252 ft 450 kts 134°
2026-04-24 05:45 49.35908 10.20942 35252 ft 450 kts 134°
2026-04-24 05:45 49.31305 10.27449 35252 ft 450 kts 134°
2026-04-24 05:46 49.26699 10.33956 35251 ft 450 kts 134°
2026-04-24 05:46 49.22113 10.40472 35252 ft 449 kts 132°
2026-04-24 05:47 49.17655 10.47164 35250 ft 449 kts 132°
2026-04-24 05:47 49.13183 10.53826 35249 ft 449 kts 132°
2026-04-24 05:48 49.08697 10.60458 35250 ft 449 kts 132°
2026-04-24 05:48 49.04240 10.67039 35250 ft 448 kts 132°
2026-04-24 05:49 48.99744 10.73638 35247 ft 449 kts 132°
2026-04-24 05:49 48.95254 10.80231 35248 ft 449 kts 132°
2026-04-24 05:50 48.90755 10.86833 35249 ft 449 kts 132°
2026-04-24 05:50 48.86257 10.93417 35251 ft 449 kts 132°
2026-04-24 05:51 48.81748 10.99981 35253 ft 449 kts 132°
2026-04-24 05:51 48.77241 11.06527 35271 ft 449 kts 132°
2026-04-24 05:52 48.72730 11.13075 35250 ft 449 kts 132°
2026-04-24 05:52 48.68215 11.19605 35250 ft 449 kts 132°
2026-04-24 05:53 48.63707 11.26143 35252 ft 448 kts 129°
2026-04-24 05:53 48.59560 11.33145 35251 ft 447 kts 128°
2026-04-24 05:54 48.55390 11.40108 35248 ft 447 kts 128°
2026-04-24 05:54 48.51198 11.47049 35245 ft 447 kts 128°
2026-04-24 05:55 48.47008 11.53958 35242 ft 446 kts 128°
2026-04-24 05:55 48.42855 11.60812 35237 ft 446 kts 128°
2026-04-24 05:56 48.38672 11.67714 35235 ft 446 kts 128°
2026-04-24 05:56 48.34473 11.74598 35234 ft 447 kts 128°
2026-04-24 05:57 48.30264 11.81473 35234 ft 446 kts 128°
2026-04-24 05:57 48.26050 11.88339 35235 ft 447 kts 128°
2026-04-24 05:58 48.21844 11.95187 35230 ft 446 kts 128°
2026-04-24 05:58 48.17655 12.01984 35229 ft 446 kts 128°
2026-04-24 05:59 48.13445 12.08816 35231 ft 446 kts 128°
2026-04-24 05:59 48.09226 12.15636 35237 ft 447 kts 128°
2026-04-24 06:00 48.04994 12.22445 35241 ft 447 kts 128°
2026-04-24 06:00 48.00759 12.29238 35241 ft 447 kts 128°
2026-04-24 06:01 47.96521 12.36030 35242 ft 447 kts 128°
2026-04-24 06:01 47.92285 12.42806 35236 ft 447 kts 128°
2026-04-24 06:02 47.88032 12.49576 35216 ft 448 kts 128°
2026-04-24 06:02 47.83769 12.56363 35211 ft 449 kts 128°
2026-04-24 06:03 47.79482 12.63140 35212 ft 450 kts 128°
2026-04-24 06:03 47.75198 12.69920 35216 ft 450 kts 128°
2026-04-24 06:04 47.70909 12.76688 35219 ft 450 kts 128°
2026-04-24 06:04 47.66599 12.83366 35220 ft 452 kts 130°
2026-04-24 06:05 47.62134 12.89921 35217 ft 451 kts 129°
2026-04-24 06:05 47.57689 12.96504 35217 ft 452 kts 130°
2026-04-24 06:06 47.53226 13.03062 35219 ft 452 kts 129°
2026-04-24 06:06 47.48768 13.09628 35217 ft 452 kts 129°
2026-04-24 06:07 47.44294 13.16183 35228 ft 453 kts 129°
2026-04-24 06:07 47.39819 13.22736 35227 ft 453 kts 129°
2026-04-24 06:08 47.35333 13.29274 35228 ft 453 kts 129°
2026-04-24 06:08 47.31189 13.36169 35227 ft 445 kts 120°
2026-04-24 06:09 47.27593 13.43531 35226 ft 445 kts 120°
2026-04-24 06:09 47.23960 13.50914 35227 ft 446 kts 120°
2026-04-24 06:10 47.20323 13.58290 35206 ft 444 kts 120°
2026-04-24 06:11 47.14846 13.69315 35196 ft 446 kts 120°
2026-04-24 06:11 47.11798 13.75433 35194 ft 446 kts 120°
2026-04-24 06:12 47.07538 13.83975 35192 ft 446 kts 120°
2026-04-24 06:12 47.04466 13.90123 35186 ft 446 kts 120°
2026-04-24 06:13 47.00790 13.97441 35183 ft 445 kts 120°
2026-04-24 06:13 46.97149 14.04704 35178 ft 445 kts 120°
2026-04-24 06:14 46.93461 14.11996 35173 ft 445 kts 120°
2026-04-24 06:14 46.89785 14.19288 35178 ft 446 kts 120°
2026-04-24 06:15 46.86090 14.26567 35176 ft 446 kts 120°
2026-04-24 06:15 46.82388 14.33849 35176 ft 446 kts 120°
2026-04-24 06:16 46.78694 14.41124 35177 ft 446 kts 120°
2026-04-24 06:16 46.74976 14.48373 35179 ft 446 kts 120°
2026-04-24 06:17 46.71276 14.55625 35180 ft 446 kts 120°
2026-04-24 06:17 46.67566 14.62860 35178 ft 446 kts 120°
2026-04-24 06:18 46.63862 14.70043 35178 ft 446 kts 121°
2026-04-24 06:18 46.60141 14.77255 35181 ft 446 kts 120°
2026-04-24 06:19 46.56418 14.84457 35181 ft 445 kts 121°
2026-04-24 06:19 46.52690 14.91640 35180 ft 445 kts 121°
2026-04-24 06:20 46.48952 14.98820 35179 ft 445 kts 121°
2026-04-24 06:20 46.45221 15.05998 35173 ft 445 kts 121°
2026-04-24 06:21 46.41474 15.13155 35171 ft 445 kts 121°
2026-04-24 06:21 46.37725 15.20304 35173 ft 445 kts 121°
2026-04-24 06:22 46.34191 15.27546 35169 ft 443 kts 118°
2026-04-24 06:22 46.30677 15.34868 35173 ft 443 kts 118°
2026-04-24 06:23 46.27135 15.42170 35174 ft 443 kts 118°
2026-04-24 06:23 46.23592 15.49444 35171 ft 443 kts 118°
2026-04-24 06:24 46.20043 15.56707 35171 ft 442 kts 118°
2026-04-24 06:24 46.16325 15.63810 35164 ft 449 kts 128°
2026-04-24 06:25 46.11781 15.70066 35168 ft 452 kts 130°
2026-04-24 06:25 46.07228 15.76291 35169 ft 451 kts 130°
2026-04-24 06:26 46.02681 15.82523 35169 ft 451 kts 130°
2026-04-24 06:26 45.98125 15.88748 35170 ft 452 kts 130°
2026-04-24 06:27 45.93562 15.94957 35170 ft 451 kts 130°
2026-04-24 06:27 45.89004 16.01167 35169 ft 451 kts 130°
2026-04-24 06:28 45.84443 16.07362 35165 ft 451 kts 130°
2026-04-24 06:28 45.79868 16.13548 35170 ft 452 kts 130°
2026-04-24 06:29 45.75314 16.19679 35172 ft 452 kts 130°
2026-04-24 06:29 45.70738 16.25845 35172 ft 452 kts 130°
2026-04-24 06:30 45.66168 16.32007 35166 ft 452 kts 130°
2026-04-24 06:30 45.61575 16.38154 35166 ft 452 kts 130°
2026-04-24 06:31 45.56976 16.44308 35169 ft 452 kts 131°
2026-04-24 06:31 45.52379 16.50445 35169 ft 453 kts 131°
2026-04-24 06:32 45.47769 16.56563 35167 ft 453 kts 131°
2026-04-24 06:32 45.43157 16.62692 35168 ft 453 kts 130°
2026-04-24 06:33 45.38568 16.68771 35167 ft 454 kts 131°
2026-04-24 06:33 45.33943 16.74884 35166 ft 454 kts 131°
2026-04-24 06:34 45.29317 16.80999 35169 ft 455 kts 131°
2026-04-24 06:34 45.24668 16.87098 35170 ft 455 kts 131°
2026-04-24 06:35 45.20033 16.93190 35172 ft 455 kts 131°
2026-04-24 06:35 45.15379 16.99277 35169 ft 455 kts 131°
2026-04-24 06:36 45.10724 17.05365 35168 ft 455 kts 131°
2026-04-24 06:36 45.06074 17.11427 35167 ft 455 kts 132°
2026-04-24 06:37 45.01233 17.17254 35163 ft 457 kts 134°
2026-04-24 06:37 44.96390 17.23058 35159 ft 456 kts 134°
2026-04-24 06:38 44.91572 17.28819 35158 ft 457 kts 134°
2026-04-24 06:38 44.86727 17.34616 35156 ft 456 kts 134°
2026-04-24 06:39 44.81878 17.40392 35156 ft 457 kts 134°
2026-04-24 06:39 44.77010 17.46178 35157 ft 457 kts 134°
2026-04-24 06:40 44.72142 17.51955 35162 ft 458 kts 134°
2026-04-24 06:40 44.67273 17.57738 35160 ft 458 kts 135°
2026-04-24 06:41 44.62388 17.63493 35162 ft 459 kts 135°
2026-04-24 06:41 44.57496 17.69261 35162 ft 459 kts 135°
2026-04-24 06:42 44.52594 17.75018 35158 ft 459 kts 135°
2026-04-24 06:42 44.47696 17.80781 35159 ft 460 kts 135°
2026-04-24 06:43 44.42784 17.86541 35159 ft 460 kts 135°
2026-04-24 06:43 44.37867 17.92277 35161 ft 460 kts 135°
2026-04-24 06:44 44.32977 17.97977 35163 ft 461 kts 135°
2026-04-24 06:44 44.28052 18.03719 35162 ft 462 kts 135°
2026-04-24 06:45 44.23106 18.09436 35167 ft 462 kts 136°
2026-04-24 06:45 44.18165 18.15160 35168 ft 462 kts 135°
2026-04-24 06:46 44.13221 18.20865 35168 ft 461 kts 136°
2026-04-24 06:46 44.08277 18.26557 35166 ft 461 kts 136°
2026-04-24 06:47 44.03334 18.32245 35166 ft 461 kts 136°
2026-04-24 06:47 43.98390 18.37926 35168 ft 461 kts 136°
2026-04-24 06:48 43.93443 18.43601 35171 ft 462 kts 136°
2026-04-24 06:48 43.88477 18.49253 35176 ft 462 kts 136°
2026-04-24 06:49 43.83521 18.54909 35178 ft 461 kts 136°
2026-04-24 06:49 43.78593 18.60513 35176 ft 461 kts 136°
2026-04-24 06:50 43.73619 18.66147 35173 ft 461 kts 136°
2026-04-24 06:50 43.68669 18.71770 35168 ft 460 kts 136°
2026-04-24 06:51 43.63707 18.77359 35167 ft 460 kts 136°
2026-04-24 06:51 43.58744 18.82966 35163 ft 460 kts 136°
2026-04-24 06:52 43.53780 18.88552 35159 ft 460 kts 136°
2026-04-24 06:52 43.48843 18.94089 35159 ft 460 kts 136°
2026-04-24 06:53 43.44329 19.00238 35151 ft 455 kts 128°
2026-04-24 06:53 43.40040 19.06642 35146 ft 455 kts 128°
2026-04-24 06:54 43.35749 19.13037 35134 ft 455 kts 128°
2026-04-24 06:54 43.31450 19.19415 35133 ft 455 kts 128°
2026-04-24 06:55 43.27147 19.25772 35126 ft 455 kts 128°
2026-04-24 06:55 43.22843 19.32136 35123 ft 455 kts 128°
2026-04-24 06:56 43.18539 19.38478 35117 ft 454 kts 128°
2026-04-24 06:56 43.14231 19.44802 35115 ft 454 kts 128°
2026-04-24 06:57 43.09923 19.51129 35109 ft 454 kts 128°
2026-04-24 06:57 43.05637 19.57405 35108 ft 454 kts 128°
2026-04-24 06:58 43.01315 19.63706 35103 ft 454 kts 128°
2026-04-24 06:58 42.96990 19.69999 35107 ft 454 kts 129°
2026-04-24 06:59 42.92668 19.76289 35106 ft 454 kts 129°
2026-04-24 06:59 42.88338 19.82569 35105 ft 454 kts 129°
2026-04-24 07:00 42.84008 19.88833 35101 ft 454 kts 129°
2026-04-24 07:00 42.80411 19.94028 35100 ft 454 kts 129°
2026-04-24 07:01 42.76079 20.00273 35100 ft 454 kts 129°
2026-04-24 07:01 42.71960 20.06735 35098 ft 451 kts 124°
2026-04-24 07:02 42.67997 20.13341 35102 ft 451 kts 125°
2026-04-24 07:02 42.64014 20.19922 35103 ft 451 kts 125°
2026-04-24 07:03 42.60011 20.26490 35106 ft 451 kts 125°
2026-04-24 07:03 42.56018 20.33046 35107 ft 451 kts 125°
2026-04-24 07:04 42.52021 20.39594 35103 ft 451 kts 125°
2026-04-24 07:04 42.48018 20.46138 35101 ft 451 kts 125°
2026-04-24 07:05 42.44025 20.52636 35102 ft 451 kts 125°
2026-04-24 07:05 42.42012 20.55911 35215 ft 454 kts 125°
2026-04-24 07:05 42.39992 20.59197 35555 ft 454 kts 125°
2026-04-24 07:05 42.37980 20.62481 35883 ft 453 kts 125°
2026-04-24 07:06 42.35964 20.65757 36197 ft 453 kts 126°
2026-04-24 07:06 42.33944 20.69035 36488 ft 454 kts 126°
2026-04-24 07:06 42.31923 20.72305 36773 ft 453 kts 126°
2026-04-24 07:06 42.29899 20.75570 37055 ft 453 kts 126°
2026-04-24 07:07 42.27879 20.78829 37109 ft 451 kts 126°
2026-04-24 07:07 42.21876 20.88506 37108 ft 447 kts 126°
2026-04-24 07:08 42.17885 20.94909 37102 ft 445 kts 126°
2026-04-24 07:08 42.13895 21.01309 37111 ft 446 kts 126°
2026-04-24 07:09 42.09747 21.07527 37102 ft 449 kts 133°
2026-04-24 07:09 42.05177 21.13265 37115 ft 449 kts 133°
2026-04-24 07:10 42.00660 21.18997 37110 ft 449 kts 133°
2026-04-24 07:10 41.96112 21.24760 37110 ft 449 kts 133°
2026-04-24 07:11 41.91556 21.30511 37115 ft 449 kts 134°
2026-04-24 07:11 41.87013 21.36253 37118 ft 449 kts 133°
2026-04-24 07:12 41.82460 21.41982 37118 ft 449 kts 134°
2026-04-24 07:12 41.77899 21.47706 37117 ft 449 kts 134°
2026-04-24 07:13 41.73353 21.53433 37116 ft 448 kts 134°
2026-04-24 07:13 41.68784 21.59126 37118 ft 449 kts 134°
2026-04-24 07:14 41.64225 21.64825 37115 ft 448 kts 134°
2026-04-24 07:14 41.59669 21.70515 37114 ft 449 kts 134°
2026-04-24 07:15 41.55092 21.76197 37111 ft 449 kts 134°
2026-04-24 07:15 41.50516 21.81866 37114 ft 449 kts 134°
2026-04-24 07:16 41.45978 21.87498 37115 ft 449 kts 134°
2026-04-24 07:16 41.41403 21.93143 37115 ft 448 kts 134°
2026-04-24 07:17 41.36829 21.98793 37106 ft 448 kts 134°
2026-04-24 07:17 41.32246 22.04437 37104 ft 449 kts 134°
2026-04-24 07:18 41.27662 22.10069 37105 ft 449 kts 134°
2026-04-24 07:18 41.23073 22.15698 37094 ft 448 kts 135°
2026-04-24 07:19 41.18489 22.21307 37094 ft 448 kts 135°
2026-04-24 07:19 41.13771 22.26731 37089 ft 450 kts 139°
2026-04-24 07:20 41.08910 22.31949 37093 ft 449 kts 138°
2026-04-24 07:20 41.04080 22.37130 37100 ft 449 kts 139°
2026-04-24 07:21 40.99223 22.42334 37084 ft 449 kts 139°
2026-04-24 07:21 40.94376 22.47531 37084 ft 448 kts 139°
2026-04-24 07:22 40.89521 22.52713 37086 ft 448 kts 139°
2026-04-24 07:22 40.84669 22.57879 37083 ft 448 kts 139°
2026-04-24 07:23 40.79821 22.63047 37081 ft 447 kts 139°
2026-04-24 07:23 40.74971 22.68200 37081 ft 448 kts 139°
2026-04-24 07:24 40.70117 22.73344 37080 ft 447 kts 139°
2026-04-24 07:24 40.65263 22.78477 37078 ft 447 kts 139°
2026-04-24 07:25 40.60417 22.83601 37074 ft 447 kts 139°
2026-04-24 07:25 40.55565 22.88715 37070 ft 447 kts 139°
2026-04-24 07:26 40.50702 22.93820 37067 ft 447 kts 139°
2026-04-24 07:26 40.45865 22.98951 37064 ft 446 kts 135°
2026-04-24 07:27 40.41562 23.04785 37066 ft 444 kts 131°
2026-04-24 07:27 40.37320 23.10670 37065 ft 444 kts 131°
2026-04-24 07:28 40.33071 23.16543 37063 ft 444 kts 131°
2026-04-24 07:28 40.28849 23.22368 37062 ft 444 kts 131°
2026-04-24 07:29 40.24591 23.28213 37062 ft 444 kts 132°
2026-04-24 07:29 40.20326 23.34055 37064 ft 444 kts 131°
2026-04-24 07:30 40.16056 23.39911 37067 ft 444 kts 132°
2026-04-24 07:30 40.11784 23.45746 37068 ft 444 kts 132°
2026-04-24 07:31 40.07510 23.51577 37063 ft 444 kts 132°
2026-04-24 07:31 40.03242 23.57393 37062 ft 443 kts 132°
2026-04-24 07:32 39.98972 23.63195 37060 ft 444 kts 132°
2026-04-24 07:32 39.94689 23.68998 37060 ft 444 kts 133°
2026-04-24 07:33 39.90407 23.74801 37057 ft 444 kts 133°
2026-04-24 07:33 39.86123 23.80589 37059 ft 443 kts 132°
2026-04-24 07:34 39.81843 23.86369 37056 ft 443 kts 133°
2026-04-24 07:34 39.77584 23.92089 37052 ft 443 kts 133°
2026-04-24 07:35 39.73304 23.97847 37046 ft 443 kts 133°
2026-04-24 07:35 39.69018 24.03587 37052 ft 443 kts 133°
2026-04-24 07:36 39.64727 24.09332 37048 ft 443 kts 133°
2026-04-24 07:36 39.60436 24.15065 37044 ft 443 kts 133°
2026-04-24 07:37 39.56144 24.20790 37038 ft 443 kts 133°
2026-04-24 07:37 39.51841 24.26503 37038 ft 443 kts 133°
2026-04-24 07:38 39.47542 24.32218 37032 ft 443 kts 134°
2026-04-24 07:38 39.43239 24.37940 37032 ft 443 kts 134°
2026-04-24 07:39 39.38922 24.43644 37027 ft 444 kts 134°
2026-04-24 07:39 39.34628 24.49309 37023 ft 444 kts 134°
2026-04-24 07:40 39.30332 24.55051 37027 ft 444 kts 134°
2026-04-24 07:40 39.26040 24.60797 37024 ft 444 kts 134°
2026-04-24 07:41 39.21736 24.66542 37022 ft 445 kts 135°
2026-04-24 07:41 39.17429 24.72279 37023 ft 445 kts 135°
2026-04-24 07:42 39.13114 24.78009 37024 ft 446 kts 135°
2026-04-24 07:42 39.08777 24.83727 37028 ft 446 kts 136°
2026-04-24 07:43 39.04402 24.89386 37023 ft 446 kts 136°
2026-04-24 07:43 39.00028 24.95054 37027 ft 446 kts 136°
2026-04-24 07:44 38.95649 25.00723 37024 ft 446 kts 136°
2026-04-24 07:44 38.91264 25.06383 37028 ft 447 kts 136°
2026-04-24 07:45 38.87624 25.11095 37027 ft 447 kts 137°
2026-04-24 07:45 38.82505 25.17657 37028 ft 447 kts 137°
2026-04-24 07:46 38.78103 25.23315 37022 ft 448 kts 137°
2026-04-24 07:46 38.74448 25.28011 37021 ft 448 kts 137°
2026-04-24 07:47 38.70039 25.33661 37020 ft 448 kts 138°
2026-04-24 07:47 38.65622 25.39305 37019 ft 449 kts 138°
2026-04-24 07:48 38.61198 25.44940 37015 ft 449 kts 138°
2026-04-24 07:48 38.56767 25.50573 37014 ft 449 kts 139°
2026-04-24 07:49 38.52326 25.56218 37015 ft 450 kts 139°
2026-04-24 07:49 38.47886 25.61857 37013 ft 451 kts 139°
2026-04-24 07:50 38.43465 25.67462 37015 ft 451 kts 139°
2026-04-24 07:50 38.39007 25.73080 37012 ft 451 kts 140°
2026-04-24 07:51 38.34553 25.78698 37012 ft 451 kts 140°
2026-04-24 07:51 38.30100 25.84329 37008 ft 451 kts 140°
2026-04-24 07:52 38.25467 25.89641 37001 ft 444 kts 151°
2026-04-24 07:52 38.20002 25.92999 37006 ft 433 kts 166°
2026-04-24 07:53 38.14306 25.95539 37007 ft 433 kts 166°
2026-04-24 07:53 38.08623 25.98122 37006 ft 433 kts 166°
2026-04-24 07:54 38.02946 26.00697 37005 ft 433 kts 166°
2026-04-24 07:54 37.97270 26.03280 37007 ft 433 kts 166°
2026-04-24 07:55 37.91595 26.05850 37004 ft 433 kts 166°
2026-04-24 07:55 37.85953 26.08400 37001 ft 433 kts 166°
2026-04-24 07:56 37.80272 26.10973 36999 ft 434 kts 166°
2026-04-24 07:56 37.74584 26.13542 37001 ft 434 kts 166°
2026-04-24 07:57 37.68897 26.16106 36997 ft 434 kts 166°
2026-04-24 07:57 37.63212 26.18653 36917 ft 434 kts 166°
2026-04-24 07:58 37.60371 26.19926 36621 ft 432 kts 166°
2026-04-24 07:58 37.57534 26.21205 35920 ft 435 kts 166°
2026-04-24 07:58 37.54671 26.22484 35305 ft 436 kts 167°
2026-04-24 07:58 37.51823 26.23763 34885 ft 431 kts 167°
2026-04-24 07:59 37.49008 26.25021 34444 ft 428 kts 168°
2026-04-24 07:59 37.46215 26.26273 34008 ft 425 kts 168°
2026-04-24 07:59 37.43446 26.27516 33586 ft 421 kts 168°
2026-04-24 07:59 37.40698 26.28741 33169 ft 417 kts 169°
2026-04-24 08:00 37.37974 26.29945 32745 ft 414 kts 169°
2026-04-24 08:00 37.35267 26.31152 32327 ft 411 kts 169°
2026-04-24 08:00 37.32586 26.32350 31905 ft 408 kts 169°
2026-04-24 08:00 37.29923 26.33541 31488 ft 405 kts 169°
2026-04-24 08:01 37.27275 26.34721 31081 ft 402 kts 170°
2026-04-24 08:01 37.24644 26.35887 30644 ft 400 kts 170°
2026-04-24 08:01 37.22028 26.37043 30228 ft 398 kts 171°
2026-04-24 08:01 37.19421 26.38201 29808 ft 396 kts 170°
2026-04-24 08:02 37.16833 26.39354 29390 ft 394 kts 170°
2026-04-24 08:02 37.14254 26.40495 28980 ft 393 kts 170°
2026-04-24 08:02 37.11682 26.41629 28547 ft 391 kts 170°
2026-04-24 08:02 37.09128 26.42762 28130 ft 389 kts 170°
2026-04-24 08:03 37.06580 26.43898 27711 ft 387 kts 170°
2026-04-24 08:03 37.04080 26.45000 27299 ft 385 kts 170°
2026-04-24 08:03 37.01564 26.46116 26894 ft 383 kts 170°
2026-04-24 08:03 36.99025 26.47236 26475 ft 382 kts 169°
2026-04-24 08:04 36.96557 26.48329 26073 ft 380 kts 169°
2026-04-24 08:04 36.94068 26.49430 25657 ft 379 kts 169°
2026-04-24 08:04 36.91641 26.50806 25238 ft 389 kts 157°
2026-04-24 08:04 36.89462 26.52885 24833 ft 400 kts 143°
2026-04-24 08:05 36.87697 26.55617 24449 ft 410 kts 128°
2026-04-24 08:05 36.86421 26.58835 24047 ft 415 kts 119°
2026-04-24 08:05 36.85307 26.62157 23629 ft 413 kts 119°
2026-04-24 08:05 36.84188 26.65452 23225 ft 411 kts 119°
2026-04-24 08:06 36.83069 26.68714 22820 ft 408 kts 119°
2026-04-24 08:06 36.81955 26.71959 22421 ft 405 kts 119°
2026-04-24 08:06 36.80847 26.75177 22021 ft 402 kts 119°
2026-04-24 08:06 36.79749 26.78365 21619 ft 399 kts 119°
2026-04-24 08:07 36.78659 26.81537 21223 ft 396 kts 119°
2026-04-24 08:07 36.77574 26.84674 20838 ft 393 kts 119°
2026-04-24 08:07 36.76495 26.87791 20438 ft 390 kts 119°
2026-04-24 08:07 36.75430 26.90880 20044 ft 387 kts 119°
2026-04-24 08:08 36.74368 26.93963 19660 ft 385 kts 119°
2026-04-24 08:08 36.73319 26.96978 19276 ft 383 kts 119°
2026-04-24 08:08 36.72264 27.00020 18896 ft 381 kts 119°
2026-04-24 08:09 36.70171 27.06046 18137 ft 377 kts 119°
2026-04-24 08:09 36.69130 27.09036 17756 ft 375 kts 119°
2026-04-24 08:09 36.68089 27.12005 17376 ft 373 kts 119°
2026-04-24 08:09 36.67060 27.14961 17004 ft 371 kts 119°
2026-04-24 08:10 36.66035 27.17900 16630 ft 368 kts 118°
2026-04-24 08:10 36.65014 27.20812 16265 ft 366 kts 118°
2026-04-24 08:10 36.64003 27.23710 15886 ft 364 kts 118°
2026-04-24 08:10 36.62996 27.26595 15515 ft 362 kts 118°
2026-04-24 08:11 36.61991 27.29451 15149 ft 359 kts 118°
2026-04-24 08:11 36.60992 27.32291 14782 ft 357 kts 118°
2026-04-24 08:11 36.59999 27.35115 14415 ft 354 kts 118°
2026-04-24 08:11 36.59015 27.37910 14054 ft 352 kts 118°
2026-04-24 08:12 36.58037 27.40686 13694 ft 349 kts 118°
2026-04-24 08:12 36.57076 27.43410 13337 ft 347 kts 117°
2026-04-24 08:12 36.56110 27.46149 12979 ft 345 kts 117°
2026-04-24 08:12 36.55150 27.48872 12624 ft 343 kts 117°
2026-04-24 08:13 36.54191 27.51578 12270 ft 341 kts 117°
2026-04-24 08:13 36.53235 27.54263 11915 ft 338 kts 117°
2026-04-24 08:13 36.52290 27.56934 11557 ft 336 kts 117°
2026-04-24 08:13 36.51352 27.59589 11196 ft 334 kts 117°
2026-04-24 08:14 36.50417 27.62222 10859 ft 332 kts 116°
2026-04-24 08:14 36.49488 27.64834 10514 ft 329 kts 116°
2026-04-24 08:14 36.48567 27.67421 10169 ft 326 kts 116°
2026-04-24 08:14 36.47658 27.69975 9964 ft 319 kts 116°
2026-04-24 08:15 36.46783 27.72467 9794 ft 311 kts 114°
2026-04-24 08:15 36.46304 27.75071 9673 ft 311 kts 96°
2026-04-24 08:15 36.46070 27.77737 9548 ft 309 kts 100°
2026-04-24 08:15 36.45719 27.80369 9354 ft 308 kts 100°
2026-04-24 08:16 36.45365 27.82976 9094 ft 305 kts 100°
2026-04-24 08:16 36.45011 27.85559 8804 ft 302 kts 100°
2026-04-24 08:16 36.44657 27.88125 8504 ft 300 kts 101°
2026-04-24 08:16 36.44306 27.90669 8205 ft 298 kts 101°
2026-04-24 08:17 36.43960 27.93166 7909 ft 296 kts 100°
2026-04-24 08:17 36.43957 27.95699 7603 ft 294 kts 78°
2026-04-24 08:17 36.44480 27.98145 7305 ft 292 kts 71°
2026-04-24 08:17 36.45138 28.00524 7042 ft 290 kts 70°
2026-04-24 08:18 36.45800 28.02886 6792 ft 289 kts 70°
2026-04-24 08:18 36.46462 28.05242 6547 ft 288 kts 70°
2026-04-24 08:18 36.47123 28.07582 6229 ft 287 kts 70°
2026-04-24 08:18 36.47784 28.09918 5884 ft 287 kts 70°
2026-04-24 08:19 36.48446 28.12253 5523 ft 286 kts 70°
2026-04-24 08:19 36.49092 28.14539 5166 ft 275 kts 70°
2026-04-24 08:19 36.49709 28.16741 4828 ft 265 kts 70°
2026-04-24 08:19 36.50301 28.18864 4462 ft 256 kts 70°
2026-04-24 08:20 36.50868 28.20920 4109 ft 247 kts 70°
2026-04-24 08:20 36.51414 28.22915 3764 ft 240 kts 70°
2026-04-24 08:20 36.51913 28.24881 3402 ft 238 kts 80°
2026-04-24 08:20 36.51786 28.26898 3046 ft 233 kts 112°
2026-04-24 08:21 36.50845 28.28453 2700 ft 224 kts 146°
2026-04-24 08:21 36.49477 28.29197 2359 ft 215 kts 174°
2026-04-24 08:21 36.48039 28.29034 2073 ft 205 kts 203°
2026-04-24 08:21 36.46840 28.28140 2019 ft 201 kts 224°
2026-04-24 08:22 36.45963 28.26805 2017 ft 200 kts 242°
2026-04-24 08:22 36.45401 28.25287 2043 ft 184 kts 251°
2026-04-24 08:22 36.44981 28.23848 1993 ft 170 kts 252°
2026-04-24 08:22 36.44593 28.22519 1971 ft 163 kts 252°
2026-04-24 08:23 36.44206 28.21188 1818 ft 163 kts 252°
2026-04-24 08:23 36.43823 28.19874 1616 ft 158 kts 252°
2026-04-24 08:23 36.43458 28.18628 1437 ft 147 kts 252°
2026-04-24 08:23 36.43114 28.17450 1252 ft 143 kts 252°
2026-04-24 08:24 36.42778 28.16295 1049 ft 142 kts 252°
2026-04-24 08:24 36.42442 28.15139 861 ft 142 kts 252°
2026-04-24 08:24 36.42102 28.13988 637 ft 142 kts 251°
2026-04-24 08:24 36.41763 28.12839 474 ft 141 kts 251°
2026-04-24 08:25 36.41431 28.11699 300 ft 140 kts 252°
2026-04-24 08:25 36.41099 28.10561 104 ft 139 kts 252°
2026-04-24 08:25 36.40790 28.09480 32 ft 119 kts 251°
2026-04-24 08:25 36.40585 28.08790 26 ft 48 kts 250°
2026-04-24 08:26 36.40505 28.08629 24 ft 15 kts 183°
2026-04-24 08:26 36.40455 28.08705 29 ft 7 kts 114°
2026-04-24 08:26 36.40446 28.08729 26 ft 0 kts 114°
2026-04-24 08:27 36.40445 28.08732 26 ft 2 kts 114°
2026-04-24 08:27 36.40430 28.08764 28 ft 6 kts 129°
2026-04-24 08:27 36.40401 28.08829 29 ft 11 kts 96°
2026-04-24 08:27 36.40395 28.08942 29 ft 15 kts 92°
2026-04-24 08:28 36.40416 28.09058 29 ft 8 kts 70°
2026-04-24 08:28 36.40439 28.09137 29 ft 11 kts 70°
2026-04-24 08:28 36.40469 28.09238 29 ft 14 kts 69°
2026-04-24 08:28 36.40499 28.09344 29 ft 10 kts 90°
2026-04-24 08:29 36.40457 28.09383 29 ft 9 kts 159°
2026-04-24 08:29 36.40438 28.09392 29 ft 0 kts 160°